| time (UTC) | temp F | wind direction | speed MPH | gust MPH | rain 1hr in | rain 24hr in | rain mn in | humidity % | barometer mb |
| 20260905190014 | 94 | 150 | 3.0 | 7.0 | 0.00 | 0.00 | 0.00 | 71 | 1008.6 |
| 20260905184520 | 94 | 117 | 4.0 | 7.0 | 0.00 | 0.00 | 0.00 | 71 | 1008.8 |
| 20260905183005 | 94 | 252 | 1.0 | 4.0 | 0.00 | 0.00 | 0.00 | 67 | 1009.0 |
| 20260905181533 | 92 | 298 | 0.0 | 5.0 | 0.00 | 0.00 | 0.00 | 70 | 1009.3 |
| 20260905180034 | 93 | 70 | 0.0 | 4.0 | 0.00 | 0.00 | 0.00 | 70 | 1009.4 |
| 20260905174608 | 93 | 310 | 0.0 | 4.0 | 0.00 | 0.00 | 0.00 | 69 | 1009.5 |
| 20260905174501 | 92 | 349 | 1.0 | 4.0 | 0.00 | 0.00 | 0.00 | 69 | 1009.4 |
| 20260905173057 | 94 | 297 | 0.0 | 4.0 | 0.00 | 0.00 | 0.00 | 66 | 1009.6 |
| 20260905171548 | 94 | 8 | 0.0 | 6.0 | 0.00 | 0.00 | 0.00 | 69 | 1009.7 |
| 20260905170031 | 95 | 311 | 0.0 | 5.0 | 0.00 | 0.00 | 0.00 | 66 | 1010.1 |
| 20260905164522 | 95 | 299 | 2.0 | 6.0 | 0.00 | 0.00 | 0.00 | 66 | 1010.3 |
| 20260905163010 | 94 | 333 | 1.0 | 6.0 | 0.00 | 0.00 | 0.00 | 64 | 1010.5 |
| 20260905161506 | 94 | 19 | 1.0 | 4.0 | 0.00 | 0.00 | 0.00 | 66 | 1010.7 |
| 20260905160007 | 94 | 18 | 0.0 | 5.0 | 0.00 | 0.00 | 0.00 | 66 | 1010.9 |
| 20260905154529 | 94 | 235 | 1.0 | 7.0 | 0.00 | 0.00 | 0.00 | 68 | 1011.1 |
| 20260905153025 | 93 | 211 | 1.0 | 5.0 | 0.00 | 0.00 | 0.00 | 69 | 1010.9 |
| 20260905151553 | 92 | 344 | 1.0 | 4.0 | 0.00 | 0.00 | 0.00 | 70 | 1011.0 |
| 20260905150050 | 92 | 297 | 0.0 | 3.0 | 0.00 | 0.00 | 0.00 | 72 | 1011.1 |
| 20260905144539 | 91 | 269 | 1.0 | 5.0 | 0.00 | 0.00 | 0.00 | 73 | 1011.0 |
| 20260905143039 | 90 | 195 | 0.0 | 7.0 | 0.00 | 0.00 | 0.00 | 75 | 1011.1 |
| 20260905141534 | 89 | 273 | 1.0 | 6.0 | 0.00 | 0.00 | 0.00 | 76 | 1011.1 |
| 20260905140033 | 89 | 81 | 0.0 | 4.0 | 0.00 | 0.00 | 0.00 | 76 | 1011.1 |
| 20260905134530 | 88 | 339 | 1.0 | 3.0 | 0.00 | 0.00 | 0.00 | 77 | 1011.1 |
| 20260905133023 | 87 | 252 | 1.0 | 5.0 | 0.00 | 0.00 | 0.00 | 78 | 1011.2 |
| 20260905131518 | 86 | 338 | 0.0 | 3.0 | 0.00 | 0.00 | 0.00 | 81 | 1011.3 |
| 20260905130134 | 85 | 94 | 0.0 | 3.0 | 0.00 | 0.00 | 0.00 | 82 | 1011.4 |
| 20260905124544 | 84 | 217 | 0.0 | 3.0 | 0.00 | 0.00 | 0.00 | 83 | 1011.4 |
| 20260905123039 | 82 | 288 | 0.0 | 2.0 | 0.00 | 0.00 | 0.00 | 86 | 1011.4 |
| 20260905121607 | 81 | 77 | 0.0 | 3.0 | 0.00 | 0.00 | 0.00 | 87 | 1011.3 |
| 20260905114536 | 78 | 118 | 0.0 | 1.0 | 0.00 | 0.00 | 0.00 | 91 | 1011.3 |
| 20260905113031 | 77 | 73 | 0.0 | 4.0 | 0.00 | 0.00 | 0.00 | 93 | 1011.2 |
| 20260905111553 | 76 | 149 | 0.0 | 2.0 | 0.00 | 0.00 | 0.00 | 94 | 1011.2 |
| 20260905110052 | 75 | 110 | 0.0 | 1.0 | 0.00 | 0.00 | 0.00 | 94 | 1011.1 |
| 20260905104552 | 75 | 81 | 0.0 | 1.0 | 0.00 | 0.00 | 0.00 | 94 | 1011.0 |
| 20260905103050 | 74 | 49 | 0.0 | 0.0 | 0.00 | 0.00 | 0.00 | 94 | 1010.9 |
| 20260905101554 | 74 | 49 | 0.0 | 1.0 | 0.00 | 0.00 | 0.00 | 94 | 1010.8 |
| 20260905100055 | 73 | 49 | 0.0 | 1.0 | 0.00 | 0.00 | 0.00 | 93 | 1010.7 |
| 20260905094545 | 72 | 49 | 0.0 | 0.0 | 0.00 | 0.00 | 0.00 | 93 | 1010.7 |
| 20260905093050 | 72 | 49 | 0.0 | 0.0 | 0.00 | 0.00 | 0.00 | 93 | 1010.7 |
| 20260905091542 | 72 | 49 | 0.0 | 0.0 | 0.00 | 0.00 | 0.00 | 92 | 1010.8 |
| 20260905090042 | 72 | 49 | 0.0 | 0.0 | 0.00 | 0.00 | 0.00 | 92 | 1011.0 |
| 20260905084509 | 72 | 49 | 0.0 | 0.0 | 0.00 | 0.00 | 0.00 | 92 | 1010.9 |
| 20260905083010 | 73 | 49 | 0.0 | 0.0 | 0.00 | 0.00 | 0.00 | 91 | 1011.0 |
| 20260905081613 | 73 | 49 | 0.0 | 0.0 | 0.00 | 0.00 | 0.00 | 91 | 1011.1 |
| 20260905080038 | 73 | 49 | 0.0 | 0.0 | 0.00 | 0.00 | 0.00 | 91 | 1011.0 |
| 20260905074528 | 73 | 49 | 0.0 | 0.0 | 0.00 | 0.00 | 0.00 | 90 | 1011.2 |
| 20260905073028 | 74 | 49 | 0.0 | 0.0 | 0.00 | 0.00 | 0.00 | 89 | 1011.3 |
| 20260905071531 | 74 | 49 | 0.0 | 0.0 | 0.00 | 0.00 | 0.00 | 89 | 1011.3 |
| 20260905070024 | 75 | 49 | 0.0 | 0.0 | 0.00 | 0.00 | 0.00 | 88 | 1011.2 |
| 20260905064522 | 75 | 46 | 0.0 | 0.0 | 0.00 | 0.00 | 0.00 | 87 | 1011.4 |
| 20260905063048 | 76 | 41 | 0.0 | 3.0 | 0.00 | 0.00 | 0.00 | 86 | 1011.5 |
| 20260905061558 | 76 | 322 | 1.0 | 2.0 | 0.00 | 0.00 | 0.00 | 86 | 1011.4 |
| 20260905060021 | 76 | 139 | 0.0 | 2.0 | 0.00 | 0.00 | 0.00 | 86 | 1011.1 |
| 20260905054512 | 76 | 108 | 0.0 | 1.0 | 0.00 | 0.00 | 0.00 | 85 | 1011.9 |
| 20260905053056 | 75 | 146 | 0.0 | 2.0 | 0.00 | 0.00 | 0.00 | 85 | 1012.3 |
| 20260905051601 | 75 | 296 | 0.0 | 1.0 | 0.00 | 0.00 | 0.00 | 85 | 1012.6 |
| 20260905050055 | 75 | 248 | 0.0 | 2.0 | 0.00 | 0.00 | 0.00 | 85 | 1011.6 |
| 20260905044553 | 75 | 181 | 0.0 | 1.0 | 0.00 | 0.00 | 0.00 | 84 | 1011.7 |
| 20260905043024 | 76 | 311 | 0.0 | 0.0 | 0.00 | 0.00 | 0.00 | 84 | 1012.1 |
| 20260905041518 | 77 | 311 | 0.0 | 4.0 | 0.00 | 0.00 | 0.00 | 83 | 1012.8 |
| 20260905040054 | 77 | 223 | 1.0 | 4.0 | 0.00 | 0.00 | 0.00 | 81 | 1012.8 |
| 20260905034544 | 77 | 187 | 1.0 | 4.0 | 0.00 | 0.00 | 0.00 | 81 | 1013.5 |
| 20260905033013 | 78 | 339 | 0.0 | 4.0 | 0.00 | 0.00 | 0.00 | 81 | 1014.7 |
| 20260905031526 | 79 | 34 | 2.0 | 11.0 | 0.00 | 0.00 | 0.00 | 80 | 1015.2 |
| 20260905030042 | 80 | 353 | 5.0 | 13.0 | 0.00 | 0.00 | 0.00 | 86 | 1015.6 |
| 20260905024544 | 80 | 321 | 1.0 | 3.0 | 0.00 | 0.00 | 0.00 | 91 | 1015.2 |
| 20260905023016 | 80 | 103 | 0.0 | 0.0 | 0.00 | 0.00 | 0.00 | 90 | 1014.8 |
| 20260905021508 | 80 | 103 | 0.0 | 1.0 | 0.00 | 0.00 | 0.00 | 90 | 1014.8 |
| 20260905020047 | 80 | 321 | 0.0 | 0.0 | 0.00 | 0.00 | 0.00 | 89 | 1014.8 |
| 20260905014538 | 80 | 321 | 0.0 | 1.0 | 0.00 | 0.00 | 0.00 | 88 | 1014.8 |
| 20260905013027 | 81 | 116 | 0.0 | 2.0 | 0.00 | 0.00 | 0.00 | 88 | 1014.5 |
| 20260905011508 | 80 | 84 | 0.0 | 2.0 | 0.00 | 0.00 | 0.00 | 88 | 1014.1 |
| 20260905010049 | 81 | 152 | 0.0 | 3.0 | 0.00 | 0.00 | 0.00 | 88 | 1013.7 |
| 20260905004536 | 81 | 136 | 0.0 | 4.0 | 0.00 | 0.00 | 0.00 | 88 | 1013.5 |
| 20260905003010 | 81 | 114 | 0.0 | 7.0 | 0.00 | 0.00 | 0.00 | 88 | 1013.7 |
| 20260905001503 | 81 | 139 | 0.0 | 5.0 | 0.00 | 0.00 | 0.00 | 87 | 1013.3 |
| 20260905000032 | 81 | 82 | 0.0 | 4.0 | 0.00 | 0.00 | 0.00 | 87 | 1013.0 |
| 20260904234531 | 82 | 107 | 0.0 | 1.0 | 0.00 | 0.00 | 0.00 | 86 | 1013.0 |
| 20260904233003 | 83 | 211 | 0.0 | 2.0 | 0.00 | 0.00 | 0.00 | 84 | 1013.1 |
| 20260904231609 | 83 | 60 | 0.0 | 6.0 | 0.00 | 0.00 | 0.00 | 83 | 1013.1 |
| 20260904230041 | 84 | 153 | 0.0 | 7.0 | 0.00 | 0.00 | 0.00 | 81 | 1013.0 |
| 20260904224540 | 84 | 101 | 0.0 | 3.0 | 0.00 | 0.00 | 0.00 | 80 | 1012.7 |
| 20260904223039 | 85 | 8 | 1.0 | 6.0 | 0.00 | 0.00 | 0.00 | 78 | 1012.8 |
| 20260904221539 | 85 | 141 | 2.0 | 7.0 | 0.00 | 0.00 | 0.00 | 78 | 1012.9 |
| 20260904220036 | 86 | 241 | 2.0 | 8.0 | 0.00 | 0.00 | 0.00 | 77 | 1012.8 |
| 20260904214534 | 87 | 113 | 3.0 | 8.0 | 0.00 | 0.00 | 0.00 | 76 | 1012.9 |
| 20260904211521 | 89 | 134 | 0.0 | 9.0 | 0.00 | 0.00 | 0.00 | 75 | 1012.8 |
| 20260904210021 | 89 | 146 | 1.0 | 8.0 | 0.00 | 0.00 | 0.00 | 75 | 1012.7 |
| 20260904204524 | 89 | 248 | 1.0 | 10.0 | 0.00 | 0.00 | 0.00 | 75 | 1012.7 |
| 20260904203016 | 90 | 131 | 1.0 | 9.0 | 0.00 | 0.00 | 0.00 | 74 | 1013.1 |
| 20260904201505 | 89 | 164 | 5.0 | 13.0 | 0.00 | 0.00 | 0.00 | 74 | 1013.3 |
| 20260904200003 | 90 | 148 | 1.0 | 7.0 | 0.00 | 0.00 | 0.00 | 74 | 1013.6 |
| 20260904194628 | 90 | 148 | 3.0 | 11.0 | 0.00 | 0.00 | 0.00 | 74 | 1014.0 |
| 20260904193100 | 90 | 174 | 4.0 | 11.0 | 0.00 | 0.00 | 0.00 | 75 | 1014.3 |
| 20260904193005 | 90 | 162 | 4.0 | 11.0 | 0.00 | 0.00 | 0.00 | 75 | 1014.3 |
| 20260904193003 | 90 | 263 | 5.0 | 11.0 | 0.00 | 0.00 | 0.00 | 75 | 1014.3 |
| 20260904191531 | 90 | 236 | 3.0 | 13.0 | 0.00 | 0.00 | 0.00 | 76 | 1014.4 |